Location: Glencliff
(36.1226°N, 86.7183°W)
Time: 03:55:18
(UTC+00:00)

Meteor 1-18 Rocket - Pass Details

Date: 25 August 2019
Orbit: 837 x 909 km, 81.2° (Epoch: 19 September)

Event Time Altitude Azimuth Distance (km) Brightness Sun altitude
Rises 01:01:59 0° 355° (N) 3,425 7.7 -7.8°
Reaches altitude 10° 01:04:25 10° 358° (N) 2,495 7.0 -8.3°
Maximum altitude 01:10:02 64° 80° (E) 957 4.3 -9.3°
Drops below altitude 10° 01:15:44 10° 162° (SSE) 2,528 6.3 -10.4°
Sets 01:18:13 0° 165° (SSE) 3,474 7.0 -10.9°
